Location: Cahas Mountain Overlook
(37.0833°N, 80.1000°W)
Time: 21:22:45
(UTC-04:00)

Tiros 1 - All Passes

Search period start: 13 October 2024 00:00
Search period end: 23 October 2024 00:00
Orbit: 623 x 654 km, 48.4° (Epoch: 13 October)

Date Brightness Start Highest point End Pass type
(mag) Time Alt. Az. Time Alt. Az. Time Alt. Az.
13 Oct - 04:28:53 10° S 04:32:32 22° SE 04:36:10 10° E visible
13 Oct - 06:09:33 10° WSW 06:14:13 67° NNW 06:18:52 10° NE visible
13 Oct - 07:53:04 10° WNW 07:56:51 24° NNW 08:00:37 10° NE daylight
13 Oct - 09:36:32 10° NW 09:40:03 21° N 09:43:33 10° ENE daylight
13 Oct - 11:18:29 10° NW 11:22:55 45° NNE 11:27:18 10° E daylight
13 Oct - 13:00:39 10° WNW 13:04:51 36° SW 13:09:02 10° SSE daylight
14 Oct - 04:51:01 10° SSW 04:55:34 50° SE 05:00:06 10° ENE visible
14 Oct - 06:33:19 10° W 06:37:42 37° NNW 06:42:02 10° NE visible
14 Oct - 08:17:12 10° NW 08:20:40 20° N 08:24:07 10° NE daylight
14 Oct - 09:59:55 10° NW 10:03:49 26° NNE 10:07:43 10° ENE daylight
14 Oct - 11:41:42 10° NW 11:46:19 85° NE 11:50:53 10° SE daylight
14 Oct - 13:25:02 10° W 13:27:48 16° SW 13:30:33 10° SSW daylight
15 Oct - 03:33:55 10° S 03:37:11 19° SE 03:40:27 10° E visible
15 Oct - 05:14:04 10° WSW 05:18:47 78° NW 05:23:28 10° NE visible
15 Oct - 06:57:25 10° WNW 07:01:20 25° NNW 07:05:13 10° NE visible
15 Oct - 08:41:01 10° NW 08:44:31 20° N 08:47:58 10° NE daylight
15 Oct - 10:23:05 10° NW 10:27:27 40° NNE 10:31:46 10° E daylight
15 Oct - 12:05:07 10° WNW 12:09:29 44° SW 12:13:49 10° SSE daylight
16 Oct - 03:55:44 10° SSW 04:00:10 42° SE 04:04:36 10° ENE visible
16 Oct - 05:37:43 10° W 05:42:12 42° NNW 05:46:39 10° NE visible
16 Oct - 07:21:34 10° NW 07:25:06 21° N 07:28:37 10° NE daylight
16 Oct - 09:04:28 10° NW 09:08:17 25° NNE 09:12:06 10° ENE daylight
16 Oct - 10:46:15 10° NW 10:50:53 73° NNE 10:55:27 10° ESE daylight
16 Oct - 12:29:12 10° W 12:32:28 19° SW 12:35:43 10° S daylight
17 Oct - 02:39:04 10° SSE 02:41:50 15° SE 02:44:36 10° E night (unlit)
17 Oct - 04:18:36 10° SW 04:23:20 90° SSE 04:28:02 10° NE visible
17 Oct - 06:01:46 10° WNW 06:05:48 27° NNW 06:09:48 10° NE visible
17 Oct - 07:45:28 10° NW 07:48:56 20° N 07:52:23 10° NE daylight
17 Oct - 09:27:39 10° NW 09:31:57 35° NNE 09:36:11 10° E daylight
17 Oct - 11:09:36 10° WNW 11:14:05 53° SW 11:18:32 10° SE daylight
18 Oct - 03:00:28 10° SSW 03:04:45 35° SE 03:09:02 10° ENE night (unlit)
18 Oct - 04:42:07 10° WSW 04:46:41 48° NNW 04:51:13 10° NE visible
18 Oct - 06:25:55 10° WNW 06:29:32 21° N 06:33:07 10° NE visible
18 Oct - 08:08:58 10° NW 08:12:44 23° NNE 08:16:27 10° ENE daylight
18 Oct - 09:50:48 10° NW 09:55:24 63° NNE 09:59:58 10° ESE daylight
18 Oct - 11:33:26 10° W 11:37:06 23° SW 11:40:43 10° S daylight
19 Oct - 01:44:26 10° SSE 01:46:27 13° SE 01:48:29 10° ESE night (unlit)
19 Oct - 03:23:08 10° SW 03:27:51 77° SE 03:32:34 10° ENE visible
19 Oct - 05:06:04 10° W 05:10:13 30° NNW 05:14:21 10° NE visible
19 Oct - 06:49:53 10° NW 06:53:20 20° N 06:56:47 10° NE visible
19 Oct - 08:32:12 10° NW 08:36:24 32° NNE 08:40:34 10° E daylight
19 Oct - 10:14:04 10° WNW 10:18:39 64° SW 10:23:11 10° SE daylight
20 Oct - 02:05:15 10° SSW 02:09:20 29° SE 02:13:24 10° ENE night (unlit)
20 Oct - 03:46:31 10° WSW 03:51:10 55° NNW 03:55:47 10° NE visible
20 Oct - 05:30:13 10° WNW 05:33:55 22° N 05:37:37 10° NE visible
20 Oct - 07:13:27 10° NW 07:17:08 22° N 07:20:47 10° ENE daylight
20 Oct - 08:55:20 10° NW 08:59:54 54° NNE 09:04:25 10° ESE daylight
20 Oct - 10:37:45 10° WNW 10:41:41 28° SW 10:45:36 10° SSE daylight
21 Oct - 00:50:49 10° SE 00:51:04 10° SE 00:51:19 10° SE night (unlit)
21 Oct - 02:27:41 10° SW 02:32:22 65° SE 02:37:03 10° ENE night (unlit)
21 Oct - 04:10:22 10° W 04:14:39 33° NNW 04:18:54 10° NE visible
21 Oct - 05:54:14 10° NW 05:57:43 20° N 06:01:11 10° NE visible
21 Oct - 07:36:43 10° NW 07:40:50 30° NNE 07:44:54 10° E daylight
21 Oct - 09:18:32 10° WNW 09:23:11 76° SW 09:27:46 10° SE daylight
21 Oct - 11:02:49 10° WSW 11:04:32 12° SW 11:06:15 10° SSW daylight
22 Oct - 01:10:04 10° S 01:13:53 24° SE 01:17:43 10° E night (unlit)
22 Oct - 02:50:55 10° WSW 02:55:37 63° NNW 03:00:19 10° NE night (unlit)
22 Oct - 04:34:29 10° WNW 04:38:18 24° NNW 04:42:06 10° NE visible
22 Oct - 06:17:53 10° NW 06:21:30 21° N 06:25:06 10° ENE visible
22 Oct - 07:59:50 10° NW 08:04:21 47° NNE 08:08:49 10° ESE daylight
22 Oct - 09:42:04 10° WNW 09:46:15 34° SW 09:50:23 10° SSE daylight
